Tracking 18942 objects as of 18-Jan-2018
HD Live streaming from Space Station
objects crossing your sky now

SL-3 R/B

Track SL-3 R/B now!
10-day predictions
SL-3 R/B is classified as:


NORAD ID: 16111
Int'l Code: 1985-090B
Perigee: 399.2 km
Apogee: 417.8 km
Inclination: 97.4 °
Period: 92.6 minutes
Semi major axis: 6779 km
RCS: 5.946 m2 (large)
Launch date: October 3, 1985
Source: Commonwealth of Independent States (former USSR) (CIS)
Launch site: TYURATAM MISSILE AND SPACE COMPLEX (TTMTR)

Note: This is a ROCKET BODY
aabbcc
Your satellite tracking list
Your tracking list is empty




NASA's NSSDC Master Catalog

Two Line Element Set (TLE):
1 16111U 85090B   18018.15263879  .00004118  00000-0  62155-4 0  9998
2 16111  97.3778 140.7776 0013687 307.7560  52.2454 15.55268841777679
Source of the keplerian elements: AFSPC